Regional Weather Roundup
Issued by NWS

Home | Current Version | Previous Version | Graphics & Text | Print | Product List | Glossary On
Versions: 1 2 3 4 5 6 7 8 9 10 11 12 13 14 15 16 17 18 19 20 21 22 23 24 25 26 27 28
000
ASUS45 KBOU 180907
RWRCO

WEATHER ROUNDUP FOR COLORADO
NATIONAL WEATHER SERVICE DENVER/BOULDER CO
200 AM MST SAT FEB 18 2017

NOTE: "FAIR" INDICATES FEW OR NO CLOUDS BELOW 12000 FEET WITH NO
SIGNIFICANT WEATHER AND/OR OBSTRUCTIONS TO VISIBILITY.

COZ001>005-013-030-031-181000-
...NORTHWEST COLORADO...

CITY           SKY/WX    TMP DP  RH WIND       PRES   REMARKS
CRAIG          CLOUDY    40  32  73 SW6       29.83S
HAYDEN         MOCLDY    37  28  70 E3        29.84S
MEEKER         LGT RAIN  39  36  89 SE3       29.84R
MOUNT WERNER   NOT AVBL
STEAMBOAT SPGS CLOUDY    36  30  78 CALM      29.84S
WALDEN           N/A     34  27  75 S8          N/A  WCI  27
$$

COZ006>008-011-181000-
...WEST CENTRAL VALLEYS...

CITY           SKY/WX    TMP DP  RH WIND       PRES   REMARKS
GRAND JUNCTION MOCLDY    46  38  73 SE8       29.82F
MONTROSE       MOCLDY    40  37  89 NW3       29.88S
EAGLE          CLOUDY    41  31  67 W6        29.87S
RIFLE          LGT RAIN  43  37  79 CALM      29.86R
DELTA          CLOUDY    45  38  78 N9        29.87F
NUCLA          FAIR      37  36  93 CALM      29.88F
$$

COZ017>023-064>068-181000-
...SOUTHWEST COLORADO...

CITY           SKY/WX    TMP DP  RH WIND       PRES   REMARKS
DURANGO        FAIR      36  34  92 N5        29.90F
CORTEZ         FAIR      37  34  89 CALM      29.86F
PAGOSA SPRINGS CLOUDY    34  34  99 CALM      29.93F
TELLURIDE      CLOUDY    34  30  85 SE5       29.92F WCI  30
WOLF CREEK PAS SNOW      21  21 100 S10       30.02S VSB 1/4 WCI  10
$$

COZ009-010-012-014-032>034-037-058>063-181000-
...CENTRAL COLORADO...

CITY           SKY/WX    TMP DP  RH WIND       PRES   REMARKS
ASPEN          CLOUDY    34  27  75 CALM      29.86S
BUENA VISTA    FAIR      37  24  58 S3        29.86F
COPPER MTN     CLOUDY    28  19  69 W8        29.95S WCI  20
BERTHOUD PASS  CLOUDY    19   9  63 NW33G39   29.90F WCI   0
COTTONWOOD PAS FAIR      36  21  55 SW5       29.90S
GUNNISON       LGT SNOW  22  19  89 CALM      29.95S FOG
KREMMLING      CLOUDY    43  30  61 W7        29.87R
LEADVILLE      MOCLDY    28  18  66 NE5       29.88F WCI  23
MONARCH PASS   FOG       23  21  93 W33G39    30.02S VSB<1/4 WCI   5
SALIDA         FAIR      42  26  54 SW15G21   29.93S
SUNLIGHT       NOT AVBL
WILKERSON PASS MOCLDY    27  19  74 SW12G18   29.95S WCI  16
$$

COZ069>075-181000-
...SAN LUIS VALLEY/SANGRE DE CRISTO MOUNTAINS...

CITY           SKY/WX    TMP DP  RH WIND       PRES   REMARKS
ALAMOSA        CLOUDY    28  26  92 CALM      29.90S
LA VETA PASS   FAIR      28  23  80 NE29G37   29.89S WCI  13
SAGUACHE       CLOUDY    32  27  80 NW3       29.91S
$$

COZ035-036-038>040-181000-
...NORTHERN COLORADO FRONT RANGE...

CITY           SKY/WX    TMP DP  RH WIND       PRES   REMARKS
DENVER INTL AP MOCLDY    36  13  38 SW10      29.77R
DMNS CITY PARK   N/A     40  12  32 MISG      29.78R
AURORA         PTCLDY    35  13  39 SW10      29.77S WCI  28
FRONT RANGE AP FAIR      34  18  51 S12       29.78S WCI  25
ERIE MUNI ARPT CLOUDY    35  20  54 CALM      29.77S
BOULDER MUN AP FAIR      37  19  48 CALM      29.76S
CENTENNIAL     FAIR      39  13  34 S9        29.77S
BROOMFIELD     FAIR      43  14  31 CALM      29.78S
FORT COLLINS   MOCLDY    39  18  42 NE8       29.77S
LONGMONT       MOCLDY    42  20  41 CALM      29.79R
$$

COZ041-046-047-076>085-087-088-181000-
...PIKES PEAK/PALMER DIVIDE AND SOUTHERN FOOTHILLS...

CITY           SKY/WX    TMP DP  RH WIND       PRES   REMARKS
COLO. SPRINGS  MOCLDY    38  13  35 NE9       29.82S
A. F. ACADEMY  FAIR      26  11  53 N10       29.82R WCI  16
SCHRIEVER AFB  FAIR      35  13  39 NE12      29.82S WCI  27
ELLICOTT       FAIR     N/A N/A N/A SE5       29.81R
FALCON         FAIR      34  13  42 W5        29.84S WCI  30
FORT CARSON    FAIR      34  13  42 CALM      29.79S
LIMON          FAIR      20  13  74 CALM      29.81R
MONUMENT HILL  FAIR      36  16  44 SW8       29.83R
TRINIDAD       FAIR      32  16  51 W9        29.80S WCI  24
$$

COZ042>045-048>051-090-091-181000-
...NORTHEAST COLORADO...

CITY           SKY/WX    TMP DP  RH WIND       PRES   REMARKS
GREELEY ARPT   NOT AVBL
AKRON          FAIR      38  23  55 S14       29.78F
BURLINGTON     FAIR      32  23  69 CALM      29.79S
WRAY           NOT AVBL
STERLING       FAIR      37  27  65 NW3       29.78R
HOLYOKE        FAIR      34  25  69 SW6       29.80S WCI  29
FORT MORGAN    CLOUDY    39  22  50 S3        29.80R
$$

COZ086-089-092>099-181000-
...SOUTHEAST COLORADO...

CITY           SKY/WX    TMP DP  RH WIND       PRES   REMARKS
PUEBLO         FAIR      31  18  58 NW7       29.78R WCI  24
LA JUNTA       FAIR      35  20  54 NW5       29.78R WCI  31
LAMAR          FAIR      21  15  78 SW6       29.75S WCI  13
SPRINGFIELD      N/A     30  20  66 W7        29.75R WCI  23
$$




USA.gov is the U.S. government's official web portal to all federal, state and local government web resources and services.